Wind_Speed
22 22 21 22 22 23 23 23 23 24 25 26 27 29 29 28 27 22 18 18 17 17 18 17 16 15 14 13 13 14 15 15 15 15 16 15 14 15 15 14 13 13 13 12 12 11 10 9 8 8 8 7 6 5 5 4 5 5 6 6 7 8 9 8 8 8 8 7 7 7 6 5 4 3 2 3 4 4 3 3 4 4 4 3 3
23 22 23 23 24 24 24 24 25 26 26 27 29 30 30 29 26 21 18 17 17 18 18 17 16 14 14 14 14 14 14 14 15 15 16 15 14 14 14 13 12 12 12 11 11 10 9 8 8 8 8 7 6 5 5 5 5 6 6 6 7 8 9 8 8 7 7 7 7 6 6 5 4 3 2 2 4 4 4 4 4 4 4 4 3
23 23 24 24 24 24 24 25 26 27 27 29 30 30 31 29 26 22 19 18 18 18 18 17 15 14 14 14 13 14 14 15 15 15 15 15 14 14 14 13 12 12 12 11 10 10 9 8 8 8 7 7 6 6 6 5 5 6 6 6 7 8 9 8 7 7 7 6 6 6 6 5 4 3 2 2 4 4 4 4 5 5 4 4 3
24 25 25 24 25 25 25 26 27 28 29 30 31 31 32 31 28 26 24 21 19 19 18 17 16 14 14 13 13 13 15 15 15 15 15 15 14 13 13 13 12 12 11 11 10 9 9 8 8 8 7 7 6 6 6 6 6 6 7 6 7 8 9 8 7 7 6 6 6 6 6 5 4 3 3 2 3 5 5 4 5 5 5 4 4
26 26 25 25 25 26 26 28 29 30 31 31 31 32 32 33 32 30 29 25 21 20 19 17 16 15 13 13 12 13 15 15 15 14 15 15 15 13 12 13 12 11 11 11 10 9 9 8 8 8 7 7 6 6 6 6 6 6 7 7 7 8 9 8 8 7 6 6 6 6 6 6 4 3 2 2 3 5 5 5 5 5 5 5 4
27 26 25 25 26 27 28 29 30 31 31 31 31 32 32 33 34 32 29 24 21 20 19 19 17 15 14 13 13 14 14 14 14 14 15 15 15 14 12 12 12 10 10 10 10 10 9 9 9 8 8 7 6 6 6 6 6 6 7 7 8 9 9 8 8 8 7 6 6 6 6 6 5 3 2 2 3 5 5 5 5 5 5 5 5
27 26 26 26 27 28 29 30 31 32 33 32 32 32 33 33 33 30 25 21 21 22 21 20 18 16 14 14 14 14 14 14 13 14 15 15 15 14 13 12 12 11 9 9 9 9 9 9 9 9 8 7 6 6 7 7 7 7 7 7 8 9 9 8 8 8 7 6 6 6 6 6 5 4 3 2 3 5 6 6 5 5 5 5 5
27 27 27 27 28 29 30 31 33 33 34 33 33 33 33 33 32 28 22 20 23 24 23 22 20 17 16 15 14 14 14 14 13 14 15 15 15 14 13 12 12 11 10 9 9 9 9 10 10 10 9 8 7 7 8 8 8 7 7 8 9 9 9 9 9 8 8 7 6 6 6 6 5 4 3 3 4 5 6 6 6 6 6 5 5
28 28 28 28 29 30 31 33 34 34 35 35 34 34 33 33 32 26 21 21 24 25 24 23 21 19 17 16 15 14 14 14 14 14 15 15 15 14 12 12 12 11 10 9 9 9 9 10 10 10 9 8 8 8 8 9 9 9 8 8 9 9 10 10 9 9 8 8 7 6 6 6 5 5 4 3 4 5 6 7 7 6 6 6 5
29 29 29 29 30 31 32 33 35 35 36 36 36 36 34 33 32 27 22 22 25 25 25 24 22 20 18 16 15 15 14 14 14 15 15 15 15 14 13 12 12 11 11 10 9 9 10 10 11 11 10 9 9 8 9 9 10 10 9 9 10 10 10 11 10 9 9 8 7 7 6 6 5 5 4 3 3 4 5 6 7 7 6 6 6
30 29 30 30 31 32 34 35 37 38 38 38 38 38 36 35 34 29 24 24 26 27 26 24 23 22 19 17 16 15 14 14 14 15 15 15 15 14 13 12 12 12 11 10 10 10 11 11 11 11 11 10 9 9 9 10 12 11 10 10 11 11 11 11 11 10 10 9 8 7 7 6 5 5 4 3 3 3 4 6 7 7 7 6 6
31 31 31 32 33 34 36 37 39 40 40 40 38 38 37 35 35 31 27 27 30 30 28 25 24 22 20 18 17 16 15 14 15 16 15 15 15 14 13 12 13 12 12 11 11 11 11 11 12 11 11 11 10 9 9 11 12 13 11 11 12 11 12 12 12 11 11 10 9 8 7 6 6 5 4 3 3 3 3 4 6 7 7 6 6
32 32 33 34 35 36 38 39 40 40 40 38 35 33 32 31 32 32 31 31 33 33 31 28 25 23 21 19 18 17 16 15 16 16 15 15 14 13 13 13 13 13 13 12 12 12 12 12 12 12 12 11 11 10 10 11 13 14 13 12 13 12 12 12 12 12 12 11 10 8 8 7 6 5 4 3 3 2 2 3 4 6 7 6 6
33 33 34 35 36 38 39 40 40 37 33 30 28 28 26 25 28 32 35 37 37 35 33 30 27 25 22 20 18 17 16 16 16 16 15 15 14 13 13 14 14 14 14 13 13 13 13 13 13 12 12 12 12 11 11 12 13 15 15 14 14 14 13 13 12 13 13 12 11 9 9 8 6 5 4 3 3 2 2 2 3 4 5 6 6
33 33 33 35 37 38 39 39 39 35 30 27 26 27 26 27 30 33 38 41 39 37 36 33 29 26 21 20 19 17 17 16 15 15 15 15 14 14 14 14 14 15 15 15 15 14 14 14 14 13 13 13 13 12 12 13 14 16 16 16 15 15 14 13 13 13 13 13 12 10 9 9 8 6 5 4 3 3 2 2 2 3 4 5 6
34 34 35 36 37 38 38 37 37 35 33 32 29 28 28 30 34 34 37 41 41 39 38 34 28 24 21 20 19 18 17 16 15 14 15 16 16 15 15 15 15 15 16 17 17 16 15 15 15 15 14 13 13 13 13 14 15 17 18 17 17 16 15 14 14 13 14 14 13 11 10 10 9 7 6 5 4 4 3 2 2 3 3 4 5
36 36 36 37 37 37 36 35 36 34 33 33 30 28 27 27 31 33 35 40 40 39 38 31 24 22 21 20 19 18 17 15 15 15 16 17 17 16 16 16 16 16 17 17 18 18 17 17 17 16 15 14 14 14 14 15 16 17 19 18 18 18 16 15 14 14 15 14 14 13 11 10 10 9 8 6 5 5 4 3 2 2 3 4 5
38 37 37 37 37 35 35 34 34 33 31 29 27 26 23 23 28 36 39 40 39 38 35 29 24 21 20 19 18 17 16 15 16 16 17 17 17 17 17 17 17 17 18 18 19 19 19 18 18 17 15 14 14 15 15 16 17 18 19 19 19 19 18 16 15 15 15 15 15 13 12 11 11 11 9 8 7 6 6 5 4 3 3 4 5
38 37 37 37 35 33 32 31 30 30 28 25 23 21 18 20 28 36 37 36 36 34 30 27 24 21 20 18 17 16 16 16 16 17 17 18 18 18 18 18 18 18 19 19 20 20 20 20 19 18 16 15 14 15 15 16 17 18 20 20 20 20 19 18 17 16 16 17 16 15 13 12 12 12 11 10 8 8 7 6 5 4 4 4 4
38 38 38 36 33 30 28 26 26 27 25 23 20 16 12 16 27 32 29 29 30 29 27 26 24 21 20 18 16 16 16 17 17 18 18 19 19 19 19 19 20 20 20 20 20 20 21 21 20 19 17 15 14 15 16 16 18 19 20 21 21 21 20 19 18 17 17 18 17 16 15 13 12 13 13 12 11 9 8 7 7 6 5 4 4
38 38 36 33 30 27 24 22 23 23 22 20 19 16 14 13 18 22 24 26 28 27 26 24 21 20 18 16 16 16 17 18 19 19 20 21 21 21 21 21 21 21 21 21 21 21 21 21 20 19 17 16 15 15 16 16 18 19 20 21 22 22 21 21 20 19 19 18 18 18 17 15 14 13 13 13 13 12 11 9 8 7 6 5 5
37 35 33 29 26 23 20 19 19 19 19 18 19 19 19 17 15 16 18 22 26 25 22 20 18 18 16 16 16 16 18 19 20 21 21 22 22 23 23 23 23 22 22 22 22 21 21 20 20 19 18 16 15 16 17 16 17 19 20 21 22 22 22 22 21 20 20 20 19 19 18 17 15 14 14 14 14 13 13 11 10 9 8 7 6
34 32 29 25 22 19 17 16 15 16 17 17 18 19 20 21 20 18 17 21 24 21 18 18 19 18 17 16 16 17 19 20 21 22 22 23 24 24 24 24 23 22 22 22 23 22 21 20 20 19 18 17 15 15 16 17 17 19 20 22 23 23 23 23 23 22 21 21 20 20 19 19 18 17 16 15 15 15 14 14 12 11 10 9 8
31 27 24 21 19 16 14 13 12 13 13 14 16 17 21 22 20 20 18 18 20 18 17 19 20 19 17 16 16 18 20 21 22 22 23 23 24 24 24 23 23 23 22 22 22 22 21 21 20 20 19 17 15 15 16 17 17 19 21 22 23 23 23 24 24 24 23 22 21 21 20 20 20 19 18 17 16 16 16 15 14 13 12 11 10
26 23 20 18 16 14 12 11 10 10 11 12 14 14 17 20 19 20 19 16 16 16 17 19 20 18 17 16 17 19 20 21 22 23 23 23 23 23 23 23 22 22 21 20 20 20 21 21 20 20 19 17 15 15 16 17 17 19 21 23 24 24 25 24 24 25 24 24 23 22 22 22 22 21 20 19 18 17 17 17 16 15 14 13 12
22 20 17 15 13 11 11 10 9 10 12 12 14 13 14 18 17 17 17 14 15 17 17 19 19 17 16 16 17 19 21 22 23 23 22 22 23 23 23 23 21 21 21 20 20 20 20 20 20 19 18 18 16 15 17 18 18 19 21 23 24 25 25 25 25 25 25 25 25 24 23 23 23 23 22 21 20 19 18 18 18 17 16 15 14
19 18 15 13 11 10 10 10 11 12 15 15 16 15 14 16 16 15 14 14 15 17 17 18 17 16 16 16 17 19 21 22 22 22 22 22 23 22 22 23 22 21 21 20 20 20 20 20 19 19 18 17 17 16 17 18 19 20 21 23 25 25 26 26 25 25 25 26 26 25 25 24 24 24 24 23 22 21 20 19 19 19 18 17 16
19 16 12 11 10 10 11 12 12 13 16 17 16 16 16 16 15 14 16 16 15 16 17 17 17 17 17 17 18 20 21 21 21 22 22 22 22 22 22 22 22 21 21 20 19 18 19 19 19 18 17 17 17 17 17 18 19 20 21 23 24 25 26 26 26 26 26 26 26 26 25 25 26 26 26 25 24 24 23 21 21 20 19 19 18
18 15 10 10 10 10 12 12 12 13 15 15 15 17 19 19 18 18 18 17 17 17 17 17 17 17 17 17 19 20 20 21 21 22 22 22 22 22 22 22 21 21 20 20 18 17 17 17 18 18 17 17 17 17 18 18 19 20 21 22 23 25 25 26 26 27 27 26 26 26 26 26 27 27 27 27 26 25 25 23 22 21 21 20 19
19 15 12 11 10 11 11 10 11 11 12 13 14 16 19 21 22 19 17 17 17 17 16 16 16 16 17 18 19 19 20 20 21 21 21 21 21 21 22 21 20 20 20 19 17 16 16 16 16 17 17 17 17 18 18 19 20 20 21 22 23 24 25 26 26 27 27 27 27 27 26 26 27 27 28 28 27 27 26 25 24 23 22 21 20
20 19 17 13 10 12 10 8 9 10 10 11 13 16 19 21 20 17 16 16 15 15 15 15 15 16 17 17 18 18 19 19 20 20 19 20 20 20 21 21 20 19 18 18 17 16 16 16 15 15 16 17 17 17 17 17 19 20 21 23 24 25 26 27 27 27 27 27 27 27 27 27 27 27 28 29 29 29 28 27 26 25 24 23 22
21 22 20 14 10 11 12 10 11 12 11 13 15 16 18 17 16 15 14 13 14 14 14 14 14 15 15 16 17 18 18 18 18 18 18 18 19 19 20 20 19 18 17 17 17 16 15 15 15 15 15 16 17 16 16 16 16 18 20 22 25 26 27 27 27 27 27 27 27 27 27 27 27 28 28 29 30 30 30 29 28 28 26 25 24
23 24 20 14 10 10 12 14 14 14 14 16 17 17 16 14 13 12 11 12 14 15 14 14 15 15 16 17 18 18 18 17 17 17 17 17 18 18 20 19 17 17 17 17 17 16 15 15 15 15 16 16 17 17 17 16 16 16 16 18 21 24 25 26 26 26 26 27 27 27 27 27 27 28 29 29 30 30 31 31 30 30 29 27 26
22 25 22 15 14 11 13 17 17 15 16 16 16 16 14 12 11 11 12 14 16 17 17 16 16 17 18 19 19 19 18 17 17 17 16 16 16 17 18 17 16 17 17 17 16 15 14 14 14 15 16 17 17 17 18 17 17 15 14 13 15 18 21 22 23 24 26 26 27 27 27 27 27 27 28 29 30 31 31 31 31 30 30 29 28
18 19 20 15 13 11 10 17 21 15 14 15 15 15 14 13 13 14 16 17 18 19 19 18 18 18 19 20 20 19 19 17 16 16 16 15 15 16 17 17 16 17 17 17 16 14 13 13 13 14 15 16 16 17 17 18 17 15 13 13 13 15 18 19 21 24 25 26 26 26 27 27 27 27 27 28 29 31 31 31 31 30 30 29 29
13 14 16 11 6 5 7 15 21 16 14 15 16 17 16 17 18 18 18 19 20 21 20 19 19 18 18 18 18 19 18 17 16 15 15 15 15 15 15 16 16 16 17 17 16 15 13 12 13 13 14 15 16 16 16 16 16 15 14 14 14 15 17 19 21 24 26 26 26 26 26 26 26 26 27 27 28 30 31 32 31 31 30 30 29
10 9 10 11 4 8 11 16 20 17 15 16 17 18 19 19 19 19 19 20 21 21 20 18 17 16 15 15 16 16 16 16 15 15 15 15 15 15 15 15 15 16 16 16 16 15 14 13 13 13 14 15 15 16 16 15 15 15 15 15 15 16 17 17 18 21 24 26 26 25 24 24 24 25 26 27 28 29 30 31 32 32 32 31 30
10 7 5 9 9 11 12 15 19 17 14 16 17 17 18 19 19 19 20 20 19 18 16 15 14 14 14 14 15 15 15 15 15 15 15 15 15 14 14 14 14 15 15 16 16 16 16 15 14 14 15 15 16 16 17 16 15 15 15 16 16 17 17 15 15 16 19 22 24 24 24 23 22 22 23 25 27 28 29 30 31 32 32 33 32
12 9 6 8 11 10 8 11 16 17 15 17 16 15 16 16 17 17 17 16 15 14 13 13 14 14 14 15 15 16 16 16 15 15 16 16 15 15 15 15 14 14 15 15 16 17 17 16 16 16 16 17 17 17 18 17 17 16 16 16 17 17 16 15 15 15 16 18 20 22 22 22 22 21 21 23 25 27 28 29 30 30 31 32 32
13 11 8 8 11 10 8 8 12 17 16 15 13 12 12 13 13 13 13 12 11 11 12 13 13 14 14 15 16 16 16 16 16 16 16 17 17 16 16 16 15 15 15 16 16 17 17 17 17 18 18 18 19 19 19 18 18 17 17 17 18 18 17 17 17 17 17 17 18 19 21 22 21 21 20 20 22 24 26 27 28 29 29 29 30
13 11 9 9 7 6 9 6 10 16 16 14 12 11 12 12 12 11 10 8 9 10 12 13 14 14 14 15 15 16 16 16 16 16 16 17 17 17 17 17 16 16 16 16 16 16 17 18 18 19 19 19 20 20 20 20 19 18 18 17 18 18 18 17 17 18 18 18 18 18 20 21 21 21 20 20 21 22 23 25 25 26 27 27 28
10 9 8 6 7 11 10 6 9 15 16 13 11 12 13 13 13 11 8 8 9 11 12 13 13 14 14 15 15 16 16 16 16 16 16 16 17 18 18 18 18 17 17 17 17 17 18 19 19 20 20 20 21 21 21 21 20 19 18 17 17 18 18 18 18 19 19 19 19 19 20 21 22 22 21 21 21 22 22 23 24 24 25 26 27
8 7 5 5 11 12 9 7 9 15 17 14 12 14 16 14 12 10 8 9 10 11 12 12 13 13 14 14 14 15 15 16 16 16 16 16 17 17 18 18 18 18 18 17 18 18 19 20 20 21 21 21 22 22 22 22 21 21 19 18 18 18 18 19 19 20 20 20 20 20 21 22 22 23 22 22 22 22 22 22 23 24 24 25 26
7 6 4 7 11 12 12 10 11 18 19 16 15 17 16 13 11 10 9 9 10 12 13 13 13 13 13 13 13 14 14 14 15 15 16 16 16 16 17 17 18 18 18 18 18 19 19 20 21 21 22 22 22 23 23 22 22 21 20 20 19 19 19 19 20 20 20 20 21 21 21 22 23 23 23 23 23 22 23 23 22 23 24 25 26
7 6 6 9 11 13 14 12 12 17 17 16 17 17 15 12 11 11 10 10 11 12 13 13 13 13 13 12 12 12 12 13 14 15 16 16 16 16 16 17 17 18 18 19 19 19 19 20 20 21 21 21 21 22 23 22 22 22 21 21 20 20 20 19 19 20 20 21 21 21 22 22 24 24 25 25 25 24 23 23 23 23 24 24 24
10 9 9 10 11 13 13 11 12 14 14 16 18 17 14 12 12 12 12 12 13 14 15 14 13 13 12 12 12 12 12 12 13 14 15 16 16 16 17 17 17 18 18 19 19 19 19 19 20 20 21 21 21 21 22 22 22 21 21 21 20 20 20 19 19 20 20 21 21 22 23 24 25 25 25 26 26 25 24 23 24 24 23 22 22
12 12 12 12 12 13 13 13 14 14 16 18 19 17 15 13 12 13 14 15 16 16 16 16 14 13 12 11 12 12 12 12 12 13 14 15 16 16 16 17 17 18 19 19 20 20 20 20 20 20 21 21 21 21 21 21 21 21 20 20 19 20 20 19 20 21 21 21 22 22 23 24 25 26 26 25 25 25 24 24 24 23 22 22 22
14 14 13 12 13 14 15 16 17 17 18 19 19 19 17 14 13 14 16 17 17 17 17 16 15 13 12 11 12 13 13 13 12 13 14 15 16 16 16 16 17 18 19 19 20 21 21 21 21 21 21 21 21 21 21 21 20 20 19 19 18 19 18 19 20 20 21 22 22 23 23 24 25 25 25 25 24 25 25 24 23 23 22 22 23
16 15 14 14 15 16 17 18 18 19 20 20 19 18 17 15 14 15 17 18 17 16 17 16 14 14 13 13 14 14 15 14 14 13 13 15 16 17 17 16 17 17 18 19 20 21 21 22 22 22 22 22 21 21 21 20 20 19 18 18 17 17 17 18 18 19 19 20 21 22 23 22 23 24 24 24 24 24 24 23 24 24 24 23 24
15 14 14 16 19 19 19 19 20 21 22 21 19 18 17 15 14 15 17 18 17 16 16 15 14 15 15 16 17 17 17 17 16 14 14 15 16 17 18 17 17 17 18 19 20 21 21 22 22 22 22 22 22 21 20 20 19 18 18 17 17 16 16 16 17 18 18 19 19 20 21 18 17 19 21 22 23 23 22 23 23 25 25 25 25
14 15 18 19 20 21 20 21 22 22 23 22 20 18 17 16 15 16 17 17 17 16 16 15 15 16 17 19 19 18 18 17 16 16 15 15 16 17 18 19 19 18 18 19 20 20 21 21 22 22 22 22 22 21 20 19 18 17 17 16 16 16 16 16 16 17 17 18 18 19 20 19 18 20 20 20 21 22 23 23 24 25 26 27 26
Wind_Direction
274 273 273 273 275 278 281 285 288 289 290 292 295 300 308 316 318 314 306 303 304 304 302 297 294 293 294 297 300 303 306 310 313 313 314 319 326 327 326 327 325 325 327 328 329 331 334 333 328 325 317 312 312 305 303 299 294 292 292 296 300 308 312 309 305 300 293 280 271 264 265 271 279 285 256 203 193 189 195 203 205 205 196 178 148
268 269 269 271 273 276 280 285 288 288 290 291 294 300 307 314 318 315 307 303 301 300 299 294 290 290 291 293 296 300 304 308 309 310 314 320 324 326 325 325 324 323 324 326 326 326 329 327 320 317 312 304 305 302 296 293 293 290 290 296 299 305 308 309 308 304 297 283 271 266 267 273 282 291 272 218 197 190 196 203 206 207 198 186 159
265 265 266 267 270 274 279 282 285 286 288 290 294 300 305 311 315 313 308 304 299 298 297 292 288 287 288 291 294 299 302 303 306 311 315 318 320 324 324 323 321 320 321 322 322 321 321 318 312 310 306 297 296 297 292 290 291 289 289 295 296 299 305 308 308 304 297 283 271 266 267 273 282 291 282 236 205 195 198 203 206 205 196 189 169
262 262 263 265 268 272 276 279 281 284 286 290 295 299 304 309 311 310 307 302 296 294 294 289 284 283 284 287 293 296 297 298 305 311 313 314 315 319 322 320 318 317 318 318 316 315 313 310 307 302 299 293 291 289 286 287 287 287 289 293 291 295 303 308 308 302 296 284 272 266 266 271 278 288 286 250 213 202 201 204 205 203 195 188 175
261 261 262 265 269 273 276 278 280 283 287 290 294 298 302 307 309 309 306 300 293 290 289 285 279 277 279 284 289 290 290 295 304 308 308 308 310 315 319 318 316 317 316 316 314 311 308 306 300 293 291 290 287 282 281 283 282 284 287 290 287 291 301 306 306 299 294 285 274 266 265 269 274 283 282 256 222 207 203 204 206 204 197 189 177
260 260 261 265 269 273 276 278 280 282 285 288 292 296 301 305 307 308 304 296 288 286 283 279 274 271 274 278 281 283 286 293 300 302 302 304 307 312 317 317 315 316 315 314 312 309 306 301 296 288 285 286 284 277 277 278 277 280 284 287 284 286 297 302 301 297 293 286 274 266 263 266 270 272 270 248 225 211 205 204 206 206 200 191 181
259 260 261 265 269 273 275 277 279 281 284 287 291 294 300 304 306 307 299 288 283 282 279 274 268 265 268 271 274 278 283 289 293 295 297 299 304 309 314 315 314 314 314 313 309 306 302 297 293 288 282 281 280 273 272 273 273 278 280 283 280 281 292 296 295 294 292 288 276 266 262 264 267 264 257 238 224 215 206 203 202 203 201 194 186
260 261 263 266 269 273 274 276 278 281 284 287 290 295 300 303 304 303 291 279 277 273 271 269 263 259 261 264 269 274 280 284 286 288 291 295 301 306 311 313 312 310 310 310 305 301 297 294 292 288 283 278 275 270 269 271 271 274 275 275 275 277 288 291 290 291 291 289 281 268 260 259 261 260 255 236 222 217 210 205 203 201 200 196 190
261 263 265 266 269 272 273 276 278 281 284 287 290 294 298 300 300 296 284 275 272 265 259 259 258 254 254 257 263 269 274 278 281 284 287 292 298 304 309 310 308 306 306 305 301 298 295 292 289 286 282 276 269 266 267 269 269 268 268 269 272 275 283 287 286 288 289 289 284 274 262 256 257 258 256 240 224 218 214 207 206 203 200 198 192
263 265 266 268 270 272 274 277 280 282 284 287 291 294 295 294 293 290 280 270 266 261 251 249 251 249 249 253 259 263 267 272 277 281 285 290 295 302 307 306 304 302 301 300 298 295 294 291 288 284 278 272 265 263 263 266 267 264 263 266 271 273 277 283 284 285 287 286 284 279 266 256 255 257 256 245 233 222 218 212 209 207 204 201 194
264 266 268 270 272 274 276 280 282 284 286 289 291 293 291 288 287 284 275 264 259 256 247 243 246 246 246 250 255 259 263 267 272 277 282 288 294 300 303 302 300 299 298 296 295 292 290 289 287 283 277 270 263 258 257 262 264 263 261 262 268 270 273 280 282 283 285 285 284 281 273 260 253 252 253 249 246 232 223 218 212 211 208 204 198
267 268 270 273 275 278 281 283 284 286 288 291 293 292 287 283 281 277 269 258 253 252 245 240 242 242 243 247 251 254 259 264 270 275 280 286 293 298 299 298 297 296 295 291 289 287 285 286 285 282 277 269 260 251 250 255 261 261 258 258 264 268 271 276 281 283 283 285 285 282 278 268 256 248 248 249 251 244 228 222 217 215 212 208 203
269 270 273 276 280 283 285 286 287 289 291 291 292 291 285 280 279 275 265 253 249 250 243 237 238 239 240 242 245 250 256 263 269 275 280 285 291 295 296 295 295 293 291 287 282 281 280 280 281 282 278 270 260 248 243 247 255 259 256 255 259 263 268 272 278 282 282 284 285 284 281 275 265 252 242 241 249 245 229 223 216 217 217 212 207
270 273 277 280 284 286 288 288 288 292 295 292 292 293 283 278 283 274 258 246 243 246 241 234 234 236 236 237 241 247 254 262 269 275 280 284 289 291 292 292 292 291 287 282 278 276 275 275 276 278 277 271 260 247 238 239 247 255 255 253 254 258 262 268 274 279 282 283 284 284 282 279 273 261 245 233 238 241 226 223 214 211 216 215 210
272 276 280 284 287 287 288 288 288 289 290 290 292 290 279 278 284 269 249 240 237 239 238 232 233 235 232 233 239 245 251 259 267 274 279 282 286 286 287 288 287 286 283 280 276 272 271 272 272 272 273 269 260 247 236 235 241 248 253 252 253 254 256 261 268 275 278 280 282 282 282 280 276 268 254 235 230 234 222 216 214 204 208 212 211
277 281 284 287 288 289 290 290 289 286 283 285 289 286 281 282 278 260 243 237 234 235 234 230 232 234 230 232 237 244 250 257 264 270 275 279 282 284 284 284 283 281 280 279 277 274 271 269 269 267 267 266 258 248 235 231 236 243 248 250 252 253 253 255 262 269 273 277 279 280 279 278 276 271 261 246 232 228 225 211 211 204 199 205 209
283 287 289 290 291 293 292 290 288 286 284 283 287 284 281 279 262 245 238 236 237 236 231 227 229 230 230 235 240 246 251 256 262 265 270 274 279 281 280 279 278 277 277 276 275 274 271 268 266 264 264 263 257 248 235 228 231 238 244 247 250 252 252 253 257 263 268 272 274 277 277 276 275 273 266 256 242 232 229 221 210 208 201 197 203
289 291 293 294 295 296 294 291 288 286 284 281 282 277 277 280 256 244 244 242 242 236 227 226 227 229 232 236 241 246 250 255 260 264 268 272 275 276 276 276 275 275 273 272 271 270 270 268 266 263 261 261 256 247 237 228 228 234 240 244 247 250 252 252 254 258 263 267 269 270 272 273 273 273 271 264 254 241 233 228 220 213 207 198 198
293 296 297 298 298 297 295 294 290 287 285 281 277 273 280 283 257 247 247 243 241 233 224 223 223 227 229 230 238 245 252 258 262 265 267 269 270 271 273 275 274 273 271 269 269 269 269 268 265 262 259 258 254 245 236 229 227 232 238 242 244 247 250 250 252 254 258 263 266 266 265 267 269 271 272 269 263 254 243 235 229 222 216 207 202
298 300 300 300 300 298 296 295 291 287 286 281 275 274 283 275 250 241 239 235 231 223 217 216 216 221 222 226 237 248 256 260 263 264 266 267 269 271 274 275 274 272 270 268 268 268 268 266 265 262 259 257 254 245 235 228 227 231 237 242 244 245 248 249 249 250 253 257 262 264 263 262 264 267 270 271 268 264 256 245 238 232 226 219 212
300 301 300 300 300 299 298 295 290 288 288 283 273 264 263 259 245 242 245 237 224 213 211 211 213 221 224 230 241 251 259 262 264 266 268 270 272 274 275 274 271 269 268 266 266 266 266 266 265 262 259 257 254 245 233 226 227 231 236 242 244 245 246 247 248 248 249 252 257 261 262 261 259 261 264 268 269 267 264 258 249 242 235 231 226
299 299 298 298 300 301 300 296 290 287 286 282 271 262 257 252 247 253 262 251 231 216 212 215 224 231 231 236 245 254 260 263 267 269 271 272 273 273 273 272 271 270 270 269 267 266 265 266 265 262 258 254 251 243 231 223 224 229 235 242 245 245 245 246 247 247 247 249 252 257 261 262 259 257 258 262 265 266 266 264 259 251 243 239 237
296 295 295 296 300 303 302 297 289 282 282 280 273 268 264 256 249 249 259 255 240 229 228 233 239 240 236 240 248 256 261 267 269 271 271 271 272 272 273 275 275 276 275 274 272 270 268 265 264 261 257 252 248 241 230 221 222 228 234 241 245 246 246 246 248 248 247 247 249 252 256 259 260 258 256 257 260 263 264 265 263 258 251 244 242
292 291 292 295 299 301 297 292 284 276 275 273 271 273 265 252 241 238 243 246 240 238 242 242 242 240 240 247 254 260 265 268 268 268 268 268 270 273 276 277 278 278 275 273 272 272 270 267 265 262 258 252 246 239 228 220 220 227 234 240 245 247 247 246 247 248 249 247 246 248 252 255 258 259 258 256 257 259 262 263 264 263 258 252 246
287 286 288 292 294 295 294 289 281 270 260 256 263 268 256 242 233 229 228 230 234 240 244 242 242 241 246 254 259 263 265 265 264 264 266 268 270 273 275 276 277 277 275 271 268 268 266 265 265 263 260 254 246 237 227 220 218 225 233 240 244 246 247 247 247 248 249 248 246 246 248 251 254 257 259 259 257 257 258 260 262 263 263 259 253
280 279 281 284 288 292 291 282 267 254 243 240 249 247 237 235 232 224 221 229 239 244 244 242 243 246 251 256 260 262 262 261 261 261 264 268 270 273 275 275 275 274 273 269 265 263 261 259 260 261 258 254 247 237 227 222 220 223 230 238 243 245 246 247 248 249 249 248 247 245 245 247 250 253 256 259 258 257 256 257 259 260 261 261 259
270 270 273 278 284 287 281 266 248 241 236 234 235 228 220 222 221 220 228 239 240 238 238 239 241 245 249 253 256 257 258 259 260 263 265 268 271 273 275 275 274 272 270 268 265 262 261 259 258 258 256 251 247 241 232 227 224 224 229 236 242 245 246 247 248 249 249 249 248 246 244 245 248 250 253 256 258 258 257 256 256 257 257 259 260
262 264 270 274 274 273 266 254 242 237 236 237 234 223 215 216 222 235 243 239 233 232 234 236 239 242 244 248 252 254 256 258 261 264 266 268 271 273 274 274 274 272 270 269 267 264 262 261 258 257 256 252 247 244 239 233 230 228 229 235 240 244 246 247 248 249 250 250 249 248 246 246 247 249 251 253 255 257 258 257 256 256 255 255 257
265 261 268 269 262 261 255 248 244 240 238 238 236 228 226 231 240 246 243 236 234 235 234 235 237 240 242 245 249 253 256 259 261 263 266 270 272 273 274 275 275 274 272 271 269 266 263 260 257 255 255 253 249 244 240 237 233 230 230 232 237 242 244 246 248 249 250 251 251 249 248 247 248 249 251 252 253 256 257 258 258 258 257 256 255
280 270 270 267 253 252 250 247 248 243 237 234 234 233 233 239 245 245 240 236 234 233 232 234 237 239 241 244 248 253 256 260 263 265 269 271 273 275 277 279 278 278 276 272 269 265 260 258 257 255 255 253 250 246 241 237 235 232 231 231 233 237 241 244 246 248 250 251 252 251 249 247 247 248 250 251 252 253 255 257 257 258 258 258 256
282 268 266 271 255 243 241 238 235 228 228 230 233 236 235 239 241 238 234 231 229 231 233 236 240 243 245 248 251 253 257 261 265 269 272 275 277 278 280 281 281 280 278 274 269 262 257 256 255 254 254 254 252 249 245 241 238 235 232 230 231 233 236 240 242 245 248 251 252 251 250 248 247 247 248 250 251 252 253 254 255 256 256 257 258
281 260 262 273 258 242 237 224 215 214 222 227 230 231 229 229 228 227 228 231 235 238 241 245 248 251 253 253 255 256 259 263 268 272 275 277 279 279 279 279 279 278 274 270 265 258 253 252 253 252 252 253 255 254 250 245 240 237 235 232 230 230 232 236 239 243 246 249 251 251 251 249 247 247 247 248 250 252 253 253 254 254 254 255 256
289 263 263 273 255 240 230 217 208 213 221 225 226 224 218 215 217 221 229 240 246 248 250 253 254 256 256 256 257 259 262 267 271 274 275 276 277 277 277 278 277 275 271 268 263 257 251 246 247 249 250 251 253 253 252 248 244 241 240 238 233 230 230 233 238 241 244 247 249 251 252 251 249 247 246 247 249 251 253 254 255 255 255 255 255
296 266 258 269 259 248 235 217 205 211 222 224 221 215 209 211 219 226 237 249 254 255 255 255 255 254 254 254 256 260 263 268 271 273 275 277 279 280 282 283 281 277 273 272 268 260 252 245 244 247 249 250 250 251 252 252 250 246 242 240 235 230 228 230 236 241 244 246 248 251 252 252 250 247 246 246 247 249 251 253 254 256 257 257 257
302 278 262 267 257 256 256 217 203 210 217 213 207 203 207 219 231 238 245 252 254 257 259 256 255 254 253 255 257 261 264 268 270 271 273 276 279 281 285 287 286 282 278 276 274 267 256 248 246 247 248 250 250 251 251 252 253 250 245 240 236 231 228 229 233 237 240 243 245 248 251 252 251 248 247 246 246 246 247 250 251 253 255 256 256
312 296 262 243 227 258 257 208 204 210 201 200 206 213 225 235 242 245 249 255 257 260 262 258 258 258 258 259 260 262 265 267 269 271 273 275 278 280 282 284 283 282 280 278 275 267 257 249 246 245 246 247 248 248 248 249 250 251 252 249 243 237 234 235 237 238 238 240 242 246 250 252 253 252 250 248 247 246 247 248 249 250 252 253 253
313 309 245 212 240 294 263 221 211 209 205 215 227 233 240 242 244 248 253 260 261 262 262 260 263 264 264 266 266 267 269 270 271 272 274 274 276 278 280 282 280 279 277 275 272 266 259 252 248 246 243 242 243 246 248 248 250 253 255 256 254 248 244 245 249 246 241 240 243 246 249 252 253 253 252 251 250 249 249 249 249 250 251 252 252
295 316 250 229 276 294 272 238 218 219 230 234 237 239 241 241 245 252 258 261 260 259 261 264 269 271 274 276 277 277 277 276 275 273 273 272 272 272 274 275 276 276 276 272 268 264 260 258 255 251 249 246 246 248 252 254 256 257 257 258 258 257 254 254 257 254 246 243 243 245 249 251 252 252 251 251 251 251 251 251 251 251 251 252 253
277 290 284 264 284 286 264 238 223 233 245 236 235 240 239 243 248 253 255 254 255 260 266 271 275 279 280 281 282 282 282 280 278 275 273 273 272 271 270 270 271 273 273 270 264 260 258 258 257 256 255 256 256 256 258 260 260 259 258 257 258 259 259 259 257 255 252 249 246 247 249 250 252 253 252 251 251 251 252 252 252 252 253 253 254
271 280 280 278 291 274 228 220 229 236 236 224 224 227 229 235 238 241 244 247 259 269 274 275 276 277 278 279 280 280 280 279 277 275 274 274 275 274 273 272 272 272 271 269 266 262 259 258 257 256 257 258 261 262 262 261 261 260 258 257 257 257 258 259 257 254 253 253 251 251 253 254 254 255 256 254 252 251 252 253 253 254 255 255 256
267 275 281 286 279 213 184 196 228 227 218 209 211 218 221 223 224 229 235 249 266 270 272 273 274 276 278 279 279 278 278 278 277 275 273 272 273 274 274 273 273 272 270 268 268 266 264 262 260 259 258 258 260 261 263 264 263 260 259 258 258 258 259 259 257 254 253 254 254 253 254 255 256 257 258 257 255 253 253 255 256 256 255 256 256
267 269 280 274 197 170 166 180 208 212 210 214 224 227 224 220 219 223 233 252 263 265 270 273 275 277 278 279 279 279 279 279 278 276 272 270 269 271 273 273 274 274 273 271 269 267 266 264 263 261 260 259 259 260 262 265 265 264 262 260 259 260 260 260 258 256 256 257 257 256 255 256 258 259 260 260 259 257 255 256 258 258 258 256 256
268 268 267 217 181 176 185 199 207 208 218 239 242 230 229 224 218 221 234 252 264 269 271 271 272 273 274 276 275 275 276 277 277 276 273 270 267 268 269 271 273 274 274 273 271 269 267 266 265 264 263 262 263 263 264 265 266 267 266 263 261 261 260 260 260 259 259 260 260 260 259 259 262 264 265 266 265 263 261 260 260 262 263 262 260
267 268 247 202 187 195 219 235 225 215 229 248 240 233 236 229 223 229 239 253 266 271 271 269 269 269 270 270 270 270 270 272 274 274 274 272 269 267 266 267 269 271 272 272 270 269 267 266 266 266 266 266 266 267 267 266 267 267 266 264 262 261 260 260 261 261 261 261 262 262 262 262 264 266 268 269 268 267 267 267 266 267 267 266 266
256 250 233 215 207 215 231 241 228 223 239 248 238 238 238 228 230 237 243 253 260 265 269 271 270 268 268 268 267 267 266 268 271 272 272 271 270 268 266 265 266 266 268 269 269 267 266 265 265 266 267 267 268 268 268 268 266 265 264 264 262 261 260 260 261 260 260 261 263 264 265 265 265 266 267 268 269 269 270 270 270 271 270 269 269
248 241 233 228 226 228 231 232 229 233 243 241 237 238 232 227 233 240 247 251 253 258 264 270 272 266 264 266 267 268 269 269 270 270 269 268 267 266 266 265 264 264 264 265 266 266 266 265 265 266 267 267 267 268 269 268 267 266 266 265 265 264 263 262 260 258 258 260 262 263 265 265 264 264 264 265 267 268 269 270 270 271 271 268 268
243 240 237 234 233 233 231 228 228 232 235 233 234 234 229 228 232 242 250 252 253 255 258 266 270 265 260 262 266 267 268 267 268 271 271 271 269 266 266 266 266 266 265 266 266 267 268 267 266 266 266 266 266 267 269 269 269 268 267 267 265 266 265 264 263 261 260 260 260 261 262 262 263 263 263 262 263 265 267 269 269 269 269 266 264
238 236 235 233 232 233 232 228 223 226 231 230 230 233 230 225 229 242 251 254 257 255 256 263 268 268 265 265 268 268 267 266 267 271 275 277 277 273 271 269 269 268 267 266 266 266 267 267 267 267 267 267 266 267 268 268 269 269 268 267 265 264 264 263 264 265 263 263 261 260 259 260 261 262 262 262 262 263 265 265 265 266 265 265 265
233 235 236 236 233 231 230 228 225 226 229 228 230 235 231 226 232 243 253 259 259 256 254 259 264 269 271 270 270 270 270 269 267 270 276 279 280 279 276 273 271 270 269 268 266 265 265 265 266 266 267 267 267 267 267 267 268 268 269 268 267 266 263 260 260 260 261 261 261 260 261 261 263 263 262 261 261 263 262 262 262 262 262 263 264
231 236 240 243 241 234 227 223 225 230 232 230 231 235 233 230 234 241 251 256 255 252 249 251 257 266 273 274 271 270 270 271 271 272 276 280 282 281 279 275 272 270 268 268 267 265 263 263 263 264 264 265 265 265 265 265 266 266 267 268 267 266 264 261 259 257 257 258 258 260 262 263 263 263 262 262 262 262 261 261 260 260 262 263 264
239 240 237 242 243 241 236 228 225 229 233 233 232 234 233 230 232 237 244 250 250 246 241 242 252 265 274 275 273 271 268 268 270 271 273 277 280 282 281 278 274 270 267 266 266 265 264 262 261 260 261 261 262 262 263 264 265 267 267 268 268 266 265 265 263 262 262 262 262 262 263 262 259 260 264 267 265 263 262 261 259 259 260 262 263
Height
5860 5860 5860 5860 5860 5861 5861 5861 5862 5862 5862 5862 5862 5862 5862 5863 5862 5862 5862 5862 5862 5861 5860 5860 5859 5859 5858 5858 5857 5857 5856 5856 5856 5856 5856 5856 5856 5856 5855 5855 5854 5854 5853 5853 5853 5853 5853 5853 5853 5852 5852 5852 5852 5852 5852 5852 5853 5853 5853 5854 5854 5853 5853 5853 5853 5853 5854 5854 5855 5855 5856 5856 5856 5857 5857 5857 5857 5858 5858 5859 5859 5859 5859 5860 5860
5858 5858 5858 5859 5859 5859 5859 5860 5860 5860 5860 5860 5860 5860 5861 5861 5861 5861 5860 5860 5860 5860 5859 5859 5858 5858 5857 5856 5856 5856 5855 5855 5855 5855 5855 5855 5855 5855 5854 5854 5853 5853 5853 5852 5852 5852 5852 5852 5852 5851 5851 5851 5851 5851 5851 5852 5852 5853 5853 5853 5853 5853 5853 5852 5852 5853 5853 5854 5854 5855 5855 5856 5856 5856 5856 5857 5857 5857 5858 5858 5859 5859 5859 5860 5860
5856 5856 5857 5857 5857 5858 5858 5858 5858 5858 5858 5858 5858 5858 5859 5859 5859 5859 5859 5859 5858 5858 5858 5857 5857 5856 5856 5855 5855 5855 5854 5854 5854 5854 5854 5854 5854 5854 5853 5853 5852 5852 5852 5851 5851 5851 5851 5851 5851 5851 5851 5850 5851 5851 5851 5851 5852 5852 5853 5853 5853 5852 5852 5852 5852 5852 5853 5853 5854 5854 5855 5855 5856 5856 5856 5856 5857 5857 5858 5858 5859 5859 5859 5860 5860
5854 5854 5855 5855 5855 5856 5856 5856 5856 5856 5856 5856 5856 5856 5856 5857 5857 5857 5858 5857 5857 5857 5856 5856 5856 5855 5855 5854 5854 5854 5853 5853 5853 5853 5853 5853 5853 5853 5852 5851 5851 5851 5851 5850 5850 5850 5850 5850 5850 5850 5850 5850 5850 5850 5850 5851 5851 5852 5852 5852 5852 5852 5852 5852 5852 5852 5852 5852 5853 5854 5854 5855 5855 5856 5856 5856 5857 5857 5857 5858 5859 5859 5859 5860 5860
5852 5853 5853 5853 5854 5854 5854 5854 5854 5854 5854 5854 5854 5854 5854 5854 5854 5855 5855 5856 5855 5855 5855 5855 5854 5854 5853 5853 5853 5852 5852 5852 5852 5852 5852 5852 5852 5852 5851 5851 5851 5851 5850 5850 5849 5849 5849 5849 5849 5849 5849 5849 5849 5849 5850 5850 5851 5851 5852 5852 5852 5852 5852 5852 5851 5851 5852 5852 5852 5853 5854 5854 5855 5855 5856 5856 5856 5857 5857 5858 5858 5859 5859 5860 5860
5850 5851 5851 5851 5852 5852 5852 5851 5851 5851 5851 5852 5852 5852 5852 5852 5852 5852 5853 5853 5853 5853 5853 5853 5852 5852 5852 5852 5852 5851 5851 5851 5851 5851 5851 5851 5851 5851 5850 5850 5850 5850 5849 5849 5848 5849 5849 5848 5849 5849 5849 5848 5848 5849 5849 5849 5850 5851 5851 5852 5852 5851 5851 5851 5851 5851 5851 5851 5852 5852 5853 5854 5854 5855 5855 5856 5856 5856 5857 5858 5858 5859 5859 5860 5860
5848 5849 5849 5849 5849 5849 5849 5848 5848 5848 5848 5849 5849 5849 5850 5850 5850 5850 5850 5851 5851 5852 5851 5851 5851 5850 5850 5850 5850 5850 5850 5850 5850 5849 5849 5849 5850 5850 5850 5849 5849 5849 5848 5848 5848 5848 5848 5848 5848 5848 5848 5848 5848 5848 5848 5849 5849 5850 5851 5851 5851 5851 5851 5851 5851 5851 5850 5851 5851 5852 5853 5853 5854 5854 5855 5855 5856 5856 5857 5857 5858 5859 5859 5860 5860
5846 5846 5846 5846 5846 5846 5846 5845 5845 5845 5845 5846 5847 5847 5848 5848 5848 5848 5848 5849 5849 5849 5849 5849 5849 5849 5849 5849 5849 5849 5848 5849 5848 5848 5848 5848 5848 5849 5849 5849 5848 5848 5847 5847 5847 5847 5847 5847 5847 5847 5847 5847 5847 5848 5848 5848 5849 5850 5850 5850 5850 5851 5851 5851 5850 5850 5850 5850 5851 5851 5852 5853 5853 5854 5854 5855 5855 5856 5856 5857 5857 5858 5859 5859 5860
5844 5844 5844 5844 5844 5843 5843 5843 5842 5842 5843 5843 5844 5845 5846 5846 5845 5845 5846 5846 5847 5847 5847 5846 5846 5847 5847 5847 5847 5847 5847 5847 5847 5847 5847 5847 5847 5848 5848 5848 5847 5847 5846 5846 5846 5846 5846 5846 5846 5846 5846 5846 5847 5847 5847 5847 5848 5849 5849 5850 5850 5850 5850 5850 5850 5850 5850 5850 5850 5851 5851 5852 5853 5853 5854 5854 5855 5855 5856 5856 5857 5858 5858 5859 5859
5841 5841 5841 5841 5841 5841 5840 5840 5840 5840 5840 5841 5842 5843 5843 5843 5843 5843 5844 5844 5845 5845 5845 5844 5844 5844 5844 5845 5845 5845 5845 5845 5845 5845 5846 5846 5846 5846 5847 5847 5846 5846 5845 5845 5845 5845 5845 5845 5845 5845 5845 5845 5845 5846 5847 5847 5847 5847 5849 5849 5849 5850 5850 5849 5849 5850 5850 5850 5850 5850 5851 5852 5852 5853 5854 5854 5854 5855 5855 5856 5857 5857 5858 5858 5859
5839 5838 5838 5838 5838 5838 5838 5838 5837 5837 5838 5839 5839 5840 5840 5840 5840 5840 5841 5841 5842 5842 5842 5842 5842 5842 5842 5842 5843 5843 5844 5844 5844 5844 5844 5844 5845 5845 5845 5845 5845 5844 5844 5844 5844 5844 5844 5844 5844 5844 5844 5844 5844 5845 5846 5846 5845 5846 5848 5849 5849 5849 5849 5849 5849 5849 5849 5849 5849 5850 5850 5851 5852 5852 5853 5854 5854 5855 5855 5856 5856 5857 5857 5858 5859
5836 5836 5836 5835 5835 5835 5835 5835 5834 5834 5836 5836 5836 5836 5836 5836 5836 5836 5837 5838 5838 5839 5839 5840 5840 5840 5840 5840 5841 5842 5842 5842 5842 5842 5843 5843 5843 5844 5844 5844 5843 5843 5842 5842 5843 5843 5843 5843 5843 5842 5842 5843 5843 5844 5844 5845 5844 5845 5847 5848 5848 5848 5848 5848 5848 5849 5849 5849 5849 5849 5850 5850 5851 5852 5853 5853 5854 5854 5855 5855 5856 5857 5857 5857 5858
5834 5834 5833 5833 5833 5833 5832 5832 5831 5832 5833 5833 5833 5833 5832 5833 5833 5833 5834 5834 5834 5835 5836 5837 5837 5837 5838 5838 5839 5840 5840 5840 5841 5841 5841 5841 5842 5842 5842 5842 5841 5841 5841 5841 5841 5842 5841 5841 5841 5841 5841 5841 5842 5843 5843 5844 5843 5843 5845 5847 5847 5848 5848 5848 5848 5848 5848 5849 5849 5849 5849 5850 5850 5851 5852 5853 5853 5854 5854 5855 5856 5856 5857 5857 5858
5832 5832 5832 5832 5831 5831 5830 5829 5829 5830 5830 5830 5830 5830 5830 5829 5829 5830 5829 5829 5830 5832 5833 5834 5834 5834 5835 5836 5837 5838 5838 5839 5839 5839 5840 5840 5840 5840 5840 5840 5839 5839 5839 5839 5840 5840 5840 5840 5840 5840 5840 5840 5841 5841 5842 5842 5842 5842 5843 5845 5846 5847 5847 5847 5847 5848 5848 5848 5848 5849 5849 5849 5850 5850 5851 5852 5853 5853 5854 5854 5855 5856 5856 5857 5857
5830 5830 5831 5831 5830 5829 5828 5827 5827 5828 5827 5826 5827 5827 5827 5827 5826 5826 5825 5824 5826 5828 5829 5830 5831 5832 5832 5833 5834 5835 5836 5837 5838 5838 5838 5838 5838 5838 5838 5838 5837 5837 5837 5837 5838 5838 5838 5838 5838 5838 5838 5838 5839 5840 5841 5841 5841 5841 5841 5843 5844 5845 5846 5846 5847 5847 5847 5847 5848 5848 5848 5849 5849 5850 5850 5851 5852 5852 5853 5854 5855 5855 5856 5856 5857
5828 5828 5829 5829 5828 5827 5826 5825 5825 5824 5824 5823 5824 5824 5825 5824 5822 5821 5821 5819 5821 5824 5825 5827 5829 5830 5830 5831 5832 5833 5834 5835 5835 5836 5836 5836 5836 5836 5836 5836 5836 5835 5835 5835 5836 5836 5837 5837 5837 5837 5837 5837 5837 5838 5839 5840 5840 5840 5840 5841 5842 5843 5845 5846 5846 5846 5846 5847 5847 5847 5848 5848 5848 5849 5849 5850 5851 5852 5852 5853 5854 5855 5855 5856 5856
5826 5826 5826 5826 5825 5824 5823 5823 5821 5821 5821 5820 5821 5821 5822 5822 5820 5819 5818 5817 5818 5821 5823 5826 5828 5828 5828 5829 5831 5832 5833 5833 5833 5834 5834 5834 5834 5834 5834 5834 5834 5833 5833 5833 5833 5834 5834 5835 5835 5835 5835 5836 5836 5837 5838 5838 5839 5839 5839 5840 5841 5842 5843 5844 5845 5845 5845 5846 5846 5846 5847 5847 5848 5848 5848 5849 5850 5851 5852 5852 5853 5854 5854 5855 5856
5824 5823 5823 5823 5822 5821 5819 5819 5818 5818 5818 5818 5818 5819 5819 5819 5819 5818 5817 5817 5818 5820 5822 5823 5825 5826 5827 5828 5829 5830 5831 5831 5831 5831 5832 5832 5832 5832 5831 5831 5831 5831 5831 5831 5831 5831 5832 5832 5833 5833 5834 5834 5835 5835 5836 5837 5837 5837 5837 5838 5839 5840 5841 5842 5843 5844 5844 5844 5845 5845 5846 5847 5847 5847 5848 5848 5849 5850 5851 5852 5852 5853 5854 5854 5855
5821 5820 5820 5819 5819 5818 5816 5815 5814 5814 5815 5815 5815 5816 5816 5816 5817 5817 5817 5817 5818 5819 5820 5821 5822 5823 5825 5826 5827 5829 5829 5830 5829 5829 5830 5830 5830 5830 5829 5829 5829 5829 5829 5829 5829 5829 5829 5830 5831 5831 5832 5832 5833 5834 5835 5836 5836 5836 5836 5837 5838 5839 5840 5841 5841 5842 5842 5842 5843 5844 5845 5845 5846 5846 5847 5847 5848 5849 5850 5851 5851 5852 5853 5854 5854
5818 5817 5816 5815 5815 5814 5813 5813 5812 5811 5812 5813 5813 5813 5814 5815 5815 5816 5816 5816 5816 5816 5817 5818 5820 5821 5822 5824 5826 5827 5828 5828 5827 5827 5828 5828 5828 5827 5827 5827 5826 5826 5827 5827 5827 5827 5827 5828 5828 5829 5830 5830 5831 5832 5833 5834 5835 5835 5835 5836 5837 5838 5838 5839 5840 5840 5840 5841 5841 5842 5843 5844 5845 5845 5846 5846 5847 5847 5848 5850 5850 5851 5852 5853 5854
5814 5813 5812 5812 5811 5810 5810 5811 5810 5809 5810 5810 5810 5811 5812 5813 5814 5815 5816 5815 5813 5814 5815 5817 5818 5820 5822 5823 5824 5825 5825 5825 5825 5825 5826 5826 5826 5825 5824 5823 5823 5824 5824 5825 5825 5825 5825 5826 5826 5827 5828 5829 5830 5831 5832 5833 5833 5834 5834 5834 5835 5836 5837 5837 5838 5838 5839 5839 5840 5840 5841 5842 5843 5844 5845 5845 5846 5846 5847 5848 5849 5850 5851 5852 5853
5811 5809 5809 5809 5808 5808 5808 5808 5808 5807 5807 5808 5808 5808 5809 5810 5811 5813 5814 5814 5813 5814 5815 5816 5818 5819 5821 5822 5822 5823 5823 5823 5823 5824 5824 5824 5823 5822 5821 5820 5821 5822 5823 5823 5823 5823 5824 5824 5824 5825 5825 5826 5827 5829 5830 5831 5832 5832 5833 5833 5833 5834 5835 5836 5836 5837 5837 5838 5838 5839 5839 5840 5841 5843 5843 5844 5845 5845 5846 5847 5848 5849 5850 5851 5852
5807 5806 5806 5806 5806 5806 5806 5806 5806 5806 5806 5806 5806 5807 5807 5807 5809 5811 5812 5812 5813 5813 5814 5816 5817 5818 5819 5819 5820 5820 5820 5821 5821 5822 5822 5821 5820 5819 5819 5820 5821 5821 5822 5822 5823 5822 5822 5823 5823 5823 5823 5824 5825 5827 5828 5829 5830 5831 5831 5831 5832 5832 5833 5834 5835 5835 5836 5837 5837 5838 5838 5838 5839 5841 5842 5843 5843 5844 5844 5845 5846 5847 5849 5850 5850
5804 5803 5803 5804 5804 5804 5804 5804 5804 5805 5805 5805 5805 5805 5805 5804 5806 5808 5809 5810 5811 5811 5813 5814 5815 5816 5816 5817 5817 5818 5818 5819 5820 5820 5819 5818 5818 5817 5817 5818 5819 5819 5820 5820 5821 5821 5821 5821 5821 5821 5821 5822 5823 5825 5826 5828 5829 5829 5829 5829 5830 5831 5831 5832 5833 5833 5834 5835 5836 5836 5837 5837 5838 5839 5840 5841 5842 5843 5843 5844 5845 5846 5847 5848 5849
5801 5800 5800 5801 5802 5803 5802 5802 5802 5803 5803 5802 5803 5803 5803 5802 5804 5805 5806 5807 5808 5809 5811 5812 5813 5813 5814 5815 5815 5816 5817 5817 5818 5818 5817 5816 5815 5815 5815 5815 5816 5817 5818 5818 5818 5818 5818 5818 5818 5819 5820 5821 5822 5823 5824 5825 5827 5827 5827 5827 5828 5829 5829 5830 5831 5831 5832 5833 5834 5835 5835 5836 5836 5837 5838 5839 5840 5841 5842 5842 5843 5844 5845 5847 5848
5798 5797 5798 5799 5800 5801 5801 5800 5800 5801 5801 5801 5800 5801 5802 5802 5803 5804 5804 5805 5806 5807 5809 5810 5811 5811 5812 5813 5813 5814 5815 5815 5815 5815 5814 5813 5813 5812 5812 5812 5813 5815 5816 5816 5816 5815 5814 5814 5815 5816 5818 5819 5820 5821 5822 5823 5824 5825 5825 5825 5825 5826 5827 5828 5829 5829 5830 5831 5832 5833 5834 5834 5834 5835 5836 5837 5838 5839 5840 5841 5842 5843 5844 5845 5846
5795 5795 5795 5797 5798 5799 5799 5799 5799 5799 5799 5799 5799 5799 5800 5800 5801 5803 5803 5803 5804 5805 5806 5807 5808 5809 5810 5811 5812 5812 5813 5813 5813 5812 5812 5811 5811 5811 5810 5810 5812 5813 5813 5814 5813 5813 5813 5813 5813 5814 5815 5816 5817 5818 5819 5820 5822 5823 5823 5823 5823 5824 5825 5826 5826 5827 5828 5829 5830 5831 5832 5832 5832 5833 5834 5835 5836 5837 5838 5839 5840 5841 5842 5843 5844
5792 5793 5794 5796 5796 5797 5797 5797 5797 5798 5798 5798 5798 5798 5798 5799 5800 5801 5802 5803 5804 5804 5804 5805 5806 5807 5808 5809 5809 5810 5810 5811 5811 5810 5810 5810 5809 5809 5808 5808 5809 5810 5811 5811 5811 5812 5812 5811 5811 5812 5813 5814 5815 5816 5817 5818 5819 5820 5821 5821 5822 5822 5823 5824 5824 5825 5826 5826 5827 5829 5830 5831 5831 5831 5832 5833 5834 5835 5836 5837 5838 5839 5840 5841 5842
5791 5792 5794 5794 5795 5795 5795 5796 5796 5797 5797 5797 5798 5798 5798 5799 5799 5800 5801 5802 5803 5803 5803 5804 5805 5806 5806 5807 5807 5808 5808 5809 5808 5808 5808 5808 5808 5807 5807 5807 5808 5808 5808 5809 5809 5810 5810 5810 5810 5810 5811 5811 5812 5813 5815 5816 5817 5818 5819 5819 5820 5820 5821 5821 5822 5823 5824 5824 5825 5826 5828 5829 5829 5829 5830 5831 5832 5833 5834 5835 5836 5837 5838 5839 5840
5791 5792 5792 5792 5793 5794 5794 5795 5795 5796 5796 5796 5796 5797 5797 5798 5797 5798 5799 5800 5801 5801 5802 5803 5803 5804 5805 5805 5806 5806 5807 5807 5807 5807 5807 5806 5806 5806 5805 5805 5806 5806 5806 5806 5807 5808 5808 5808 5808 5808 5809 5809 5810 5811 5812 5813 5814 5815 5816 5817 5818 5818 5818 5819 5820 5820 5821 5822 5823 5824 5825 5827 5827 5828 5828 5829 5830 5831 5832 5832 5833 5834 5835 5837 5838
5790 5790 5790 5790 5791 5792 5793 5793 5794 5794 5794 5794 5795 5796 5796 5796 5796 5797 5798 5799 5799 5800 5800 5801 5802 5803 5803 5804 5804 5805 5805 5805 5805 5805 5805 5805 5805 5804 5803 5803 5803 5804 5804 5804 5805 5806 5806 5807 5807 5807 5807 5807 5808 5808 5809 5810 5811 5813 5814 5814 5815 5815 5816 5816 5817 5818 5819 5820 5820 5821 5823 5824 5825 5826 5826 5827 5827 5828 5829 5830 5831 5832 5833 5834 5835
5787 5786 5787 5789 5790 5790 5791 5791 5791 5792 5792 5793 5793 5794 5795 5795 5796 5797 5797 5798 5798 5799 5799 5800 5801 5801 5802 5802 5803 5803 5803 5803 5803 5803 5803 5803 5803 5802 5802 5801 5802 5802 5802 5803 5803 5804 5805 5805 5805 5806 5806 5806 5806 5806 5807 5808 5809 5810 5811 5812 5812 5813 5813 5814 5814 5815 5816 5817 5818 5819 5820 5821 5822 5823 5824 5825 5825 5826 5827 5827 5828 5829 5830 5831 5832
5784 5784 5786 5788 5788 5788 5789 5789 5789 5790 5790 5791 5792 5793 5794 5794 5795 5796 5796 5797 5797 5798 5798 5799 5799 5800 5801 5801 5801 5801 5801 5801 5801 5801 5802 5802 5801 5800 5799 5800 5801 5801 5801 5801 5802 5803 5803 5804 5804 5804 5804 5804 5804 5804 5804 5805 5806 5808 5808 5809 5810 5810 5811 5812 5812 5813 5814 5814 5815 5816 5817 5818 5820 5821 5822 5822 5823 5824 5825 5825 5826 5827 5828 5829 5830
5782 5782 5784 5787 5787 5787 5786 5785 5786 5787 5789 5791 5791 5792 5793 5793 5794 5795 5795 5795 5796 5797 5798 5798 5798 5799 5799 5799 5799 5799 5799 5799 5800 5800 5800 5800 5800 5798 5797 5798 5799 5799 5799 5800 5800 5801 5802 5802 5802 5803 5803 5802 5802 5803 5803 5803 5804 5805 5807 5807 5808 5808 5809 5810 5810 5811 5811 5812 5812 5813 5814 5815 5816 5818 5819 5820 5821 5821 5822 5823 5824 5825 5826 5827 5827
5781 5781 5783 5785 5785 5786 5786 5786 5786 5785 5787 5790 5791 5791 5792 5792 5793 5794 5794 5794 5795 5796 5797 5797 5797 5798 5797 5797 5797 5797 5797 5797 5798 5798 5798 5798 5798 5797 5796 5796 5796 5796 5797 5798 5799 5800 5800 5801 5801 5801 5801 5801 5801 5801 5802 5802 5803 5803 5804 5806 5806 5807 5807 5808 5809 5809 5809 5809 5810 5811 5811 5812 5813 5814 5816 5817 5818 5819 5819 5820 5821 5822 5823 5824 5825
5780 5780 5782 5784 5784 5785 5785 5785 5785 5785 5785 5788 5789 5790 5790 5791 5792 5793 5793 5793 5794 5795 5795 5795 5795 5795 5795 5795 5795 5795 5796 5796 5796 5796 5796 5796 5796 5795 5795 5795 5794 5795 5795 5796 5797 5798 5799 5799 5800 5800 5800 5800 5800 5801 5801 5801 5801 5802 5802 5804 5804 5805 5806 5806 5806 5806 5806 5807 5808 5808 5809 5809 5810 5811 5813 5814 5815 5816 5817 5817 5818 5819 5820 5821 5822
5779 5779 5781 5783 5784 5784 5783 5782 5784 5784 5785 5786 5787 5788 5789 5790 5790 5791 5792 5792 5793 5793 5793 5793 5793 5794 5794 5794 5794 5794 5794 5794 5795 5795 5794 5794 5794 5794 5794 5794 5794 5794 5795 5795 5796 5797 5798 5798 5799 5799 5799 5799 5800 5800 5800 5800 5800 5800 5801 5802 5802 5803 5804 5804 5804 5804 5804 5805 5806 5807 5807 5807 5808 5809 5810 5811 5812 5813 5814 5815 5815 5816 5817 5818 5819
5778 5779 5780 5783 5783 5782 5782 5782 5784 5784 5784 5784 5785 5786 5787 5788 5789 5790 5790 5791 5791 5791 5791 5791 5792 5792 5791 5792 5792 5792 5792 5792 5793 5793 5793 5793 5793 5792 5792 5793 5793 5793 5793 5794 5795 5796 5796 5797 5798 5798 5798 5799 5799 5799 5799 5799 5799 5800 5800 5800 5801 5801 5801 5802 5802 5802 5803 5803 5804 5804 5805 5805 5806 5806 5807 5808 5809 5810 5811 5812 5812 5813 5814 5815 5816
5776 5777 5779 5780 5781 5781 5781 5782 5783 5783 5781 5781 5782 5784 5785 5786 5787 5788 5788 5789 5789 5789 5789 5789 5790 5790 5790 5790 5790 5790 5790 5790 5791 5791 5791 5791 5791 5791 5791 5791 5791 5792 5792 5793 5793 5794 5795 5796 5796 5797 5797 5797 5798 5798 5798 5798 5798 5799 5799 5799 5799 5799 5799 5800 5801 5801 5801 5801 5802 5802 5803 5803 5804 5804 5805 5806 5806 5807 5808 5808 5809 5810 5811 5813 5814
5775 5775 5776 5777 5778 5780 5782 5781 5780 5780 5779 5778 5779 5782 5783 5784 5785 5786 5786 5787 5787 5787 5787 5788 5788 5789 5789 5789 5788 5788 5789 5789 5789 5790 5790 5789 5789 5789 5789 5789 5790 5790 5791 5791 5792 5792 5793 5794 5794 5795 5795 5796 5796 5797 5797 5797 5797 5797 5797 5798 5798 5798 5798 5799 5799 5800 5800 5800 5800 5801 5801 5801 5802 5802 5803 5803 5804 5805 5805 5805 5806 5808 5809 5810 5811
5773 5773 5774 5775 5776 5779 5781 5781 5779 5779 5779 5778 5778 5780 5781 5782 5783 5784 5784 5785 5785 5786 5786 5786 5787 5787 5787 5787 5787 5787 5787 5787 5788 5788 5788 5788 5788 5788 5788 5788 5788 5789 5789 5790 5790 5790 5791 5791 5792 5792 5793 5794 5794 5795 5796 5796 5796 5796 5796 5796 5796 5797 5797 5798 5798 5798 5799 5799 5799 5799 5799 5799 5799 5800 5801 5801 5802 5803 5803 5804 5804 5805 5806 5807 5807
5772 5772 5772 5773 5774 5776 5779 5780 5780 5780 5780 5778 5778 5779 5780 5780 5781 5782 5783 5783 5784 5784 5784 5785 5785 5785 5785 5785 5785 5785 5785 5785 5786 5786 5787 5787 5787 5786 5786 5786 5787 5787 5787 5788 5788 5788 5789 5789 5789 5790 5791 5792 5792 5793 5794 5794 5794 5794 5794 5794 5795 5795 5795 5796 5796 5796 5797 5797 5797 5797 5797 5797 5797 5798 5798 5799 5800 5801 5801 5802 5802 5802 5803 5803 5804
5770 5770 5770 5771 5772 5774 5777 5778 5779 5779 5780 5778 5777 5778 5778 5779 5779 5780 5781 5782 5782 5783 5783 5783 5783 5783 5783 5784 5784 5784 5784 5784 5784 5784 5785 5785 5785 5785 5785 5785 5785 5785 5785 5786 5786 5786 5786 5787 5787 5788 5788 5789 5790 5791 5791 5792 5792 5792 5792 5793 5793 5793 5793 5793 5793 5794 5794 5795 5795 5795 5795 5795 5796 5796 5796 5797 5798 5798 5799 5800 5800 5800 5800 5800 5800
5768 5768 5769 5769 5771 5773 5774 5776 5777 5777 5778 5777 5776 5777 5777 5776 5777 5778 5779 5780 5780 5781 5781 5781 5782 5782 5782 5782 5782 5782 5782 5782 5782 5783 5783 5783 5783 5783 5783 5783 5783 5783 5783 5783 5784 5784 5784 5785 5785 5786 5786 5786 5787 5788 5788 5790 5790 5790 5790 5791 5791 5791 5791 5791 5791 5792 5792 5792 5793 5793 5793 5794 5794 5794 5794 5795 5795 5796 5796 5797 5797 5798 5798 5797 5797
5766 5766 5767 5768 5769 5771 5772 5774 5775 5776 5776 5775 5775 5775 5775 5775 5775 5776 5777 5778 5779 5779 5780 5780 5780 5780 5779 5780 5780 5780 5781 5781 5781 5781 5782 5782 5782 5782 5782 5782 5782 5782 5782 5782 5782 5782 5783 5783 5783 5783 5783 5784 5784 5785 5785 5787 5788 5788 5788 5788 5789 5789 5789 5789 5789 5789 5789 5789 5790 5790 5791 5791 5792 5792 5792 5792 5792 5793 5794 5794 5795 5795 5795 5795 5794
5764 5765 5766 5766 5767 5769 5770 5771 5772 5773 5773 5773 5773 5773 5773 5773 5774 5774 5775 5776 5777 5778 5778 5779 5779 5778 5778 5777 5777 5778 5778 5779 5779 5780 5780 5781 5781 5781 5781 5780 5780 5780 5780 5780 5780 5780 5780 5781 5781 5781 5781 5781 5782 5782 5783 5784 5785 5785 5785 5786 5786 5786 5786 5787 5787 5787 5787 5787 5787 5787 5788 5788 5789 5789 5789 5789 5790 5790 5791 5791 5792 5792 5792 5792 5792
5761 5762 5763 5764 5765 5765 5766 5768 5768 5769 5770 5770 5771 5771 5771 5771 5772 5773 5774 5775 5776 5777 5777 5777 5777 5777 5776 5776 5776 5776 5776 5776 5777 5777 5778 5778 5779 5779 5779 5779 5779 5778 5778 5778 5778 5778 5778 5778 5778 5779 5779 5779 5780 5780 5780 5781 5781 5782 5782 5783 5783 5783 5783 5784 5784 5785 5785 5785 5785 5785 5785 5785 5786 5786 5786 5787 5787 5788 5788 5789 5789 5789 5789 5789 5789
5757 5758 5760 5761 5761 5762 5763 5764 5765 5766 5767 5767 5768 5768 5769 5769 5770 5771 5772 5773 5774 5775 5775 5775 5775 5775 5775 5774 5774 5774 5775 5774 5774 5775 5775 5775 5776 5776 5776 5776 5776 5776 5776 5776 5776 5776 5776 5776 5776 5776 5776 5777 5777 5778 5778 5778 5778 5778 5778 5779 5779 5780 5781 5782 5782 5783 5783 5783 5783 5783 5783 5783 5783 5784 5784 5784 5785 5785 5785 5786 5786 5786 5786 5786 5786
5753 5755 5757 5758 5758 5759 5760 5761 5762 5763 5764 5765 5766 5766 5767 5767 5768 5770 5771 5772 5772 5773 5773 5773 5774 5774 5774 5773 5773 5773 5773 5773 5772 5772 5772 5773 5773 5773 5774 5774 5774 5774 5774 5774 5774 5774 5774 5774 5774 5774 5774 5774 5775 5775 5775 5775 5775 5775 5775 5776 5776 5777 5778 5778 5779 5780 5780 5780 5780 5780 5780 5781 5781 5781 5781 5782 5782 5782 5782 5782 5783 5783 5783 5783 5783
5752 5754 5755 5756 5756 5756 5757 5758 5760 5761 5762 5763 5763 5764 5765 5766 5767 5768 5769 5770 5770 5770 5771 5771 5772 5772 5772 5772 5772 5772 5772 5771 5771 5771 5771 5771 5771 5771 5772 5772 5772 5772 5772 5772 5772 5772 5772 5772 5772 5772 5772 5772 5773 5773 5773 5773 5773 5773 5773 5773 5773 5774 5774 5775 5776 5777 5777 5778 5778 5778 5778 5779 5780 5779 5779 5779 5779 5779 5779 5779 5779 5779 5779 5780 5780
5751 5752 5751 5752 5753 5755 5756 5756 5757 5758 5759 5760 5761 5762 5763 5764 5765 5766 5766 5767 5768 5768 5768 5769 5770 5770 5770 5770 5770 5770 5770 5770 5770 5769 5769 5769 5769 5769 5770 5770 5770 5771 5771 5771 5770 5770 5771 5771 5771 5771 5770 5770 5771 5771 5771 5771 5771 5771 5771 5771 5771 5771 5772 5772 5773 5773 5774 5774 5775 5775 5775 5777 5777 5776 5776 5777 5777 5777 5777 5777 5776 5776 5776 5776 5777